Tracking 35331 objects as of 13-Sep-2026
HD Live streaming from Space Station
objects crossing your sky now

SL-3 R/B


SL-3 R/B is no longer on orbit


NORAD ID: 4417
Int'l Code: 1970-045B
Launch date: June 17, 1970
Source: Commonwealth of Independent States (former USSR) (CIS)
Launch site: PLESETSK MISSILE AND SPACE COMPLEX (PKMTR)
Decay date: 1970-06-22

Note: This is a ROCKET BODY
Your satellite tracking list
Your tracking list is empty




NASA's NSSDC Master Catalog

Two Line Element Set (TLE):
1 04417U 70045  B 70172.74606659  .04435694 +00000-0 +00000-0 0  9997
2 04417 065.3760 063.6651 0051669 031.9883 328.4369 16.27729804000686
Source of the keplerian elements: AFSPC